Bentonville, AR

9:56 AM CDT on March 29, 2017 (GMT -0500)
Bentonville Municipal-Thaden

Weather History for KVBT - April, 2011

Change the Weather History Date:

Monday, April 18, 2011

  Actual Average Record
Temperature  
Mean Temperature 66 °F -  
Max Temperature 75 °F 70 °F 86 °F (1987)
Min Temperature 57 °F 47 °F 27 °F (1953)
Cooling Degree Days 1    
Growing Degree Days 16 (Base 50)    
Moisture  
Dew Point 55 °F    
Average Humidity 67    
Maximum Humidity 88    
Minimum Humidity 52    
Precipitation  
Precipitation 0.00 in - - ()
Sea Level Pressure  
Sea Level Pressure 29.69 in    
Wind  
Wind Speed 8 mph (South)    
Max Wind Speed 16 mph    
Max Gust Speed 23 mph    
Visibility 10 miles    
Events      
Averages and records for this station are not official NWS values.
T = Trace of Precipitation, MM = Missing Value Source: NWS Daily Summary

Daily Weather History Graph

Daily Weather History Graph

Search for Another Location

Airport or City:

Trip Planner

Search our weather history database for the weather conditions in past years. The results will help you decide how hot, cold, wet, or windy it might be!

Date:

Astronomy

Apr. 18, 2011 Rise Set
Actual Time 6:39 AM CDT 7:53 PM CDT
Civil Twilight 6:13 AM CDT 8:20 PM CDT
Nautical Twilight 5:41 AM CDT 8:51 PM CDT
Astronomical Twilight 5:08 AM CDT 9:25 PM CDT
Moon 9:03 PM CDT (4/18) 6:39 AM CDT (4/18)
Length of Visible Light 14h 06m
Length of Day
13h 13m
Waxing Gibbous, 99% of the Moon is Illuminated
Apr 18
Waxing Gibbous
Apr 24
Last Quarter
May 3
New
May 10
First Quarter
May 17
Full

Hourly Weather History & Observations

Time (CDT) Temp. Dew Point Humidity Pressure Visibility Wind Dir Wind Speed Gust Speed Precip Events Conditions
12:15 AM 60.8 °F 42.8 °F 52% 29.71 in 10.0 mi South 6.9 mph - N/A   Clear
12:35 AM 60.8 °F 42.8 °F 52% 29.70 in 10.0 mi South 5.8 mph - N/A   Clear
12:55 AM 60.8 °F 42.8 °F 52% 29.70 in 10.0 mi South 4.6 mph - N/A   Clear
1:15 AM 59.0 °F 42.8 °F 55% 29.70 in 10.0 mi South 6.9 mph - N/A   Clear
1:35 AM 60.8 °F 42.8 °F 52% 29.71 in 10.0 mi South 5.8 mph - N/A   Clear
1:55 AM 60.8 °F 42.8 °F 52% 29.71 in 10.0 mi South 4.6 mph - N/A   Clear
2:15 AM 59.0 °F 42.8 °F 55% 29.70 in 10.0 mi South 6.9 mph - N/A   Clear
2:55 AM 59.0 °F 42.8 °F 55% 29.70 in 10.0 mi South 6.9 mph - N/A   Clear
3:15 AM 60.8 °F 44.6 °F 55% 29.70 in 10.0 mi South 6.9 mph - N/A   Clear
3:35 AM 60.8 °F 44.6 °F 55% 29.69 in 10.0 mi South 8.1 mph - N/A   Clear
3:55 AM 60.8 °F 44.6 °F 55% 29.70 in 10.0 mi South 8.1 mph - N/A   Clear
4:15 AM 60.8 °F 44.6 °F 55% 29.70 in 10.0 mi South 6.9 mph - N/A   Clear
4:35 AM 60.8 °F 44.6 °F 55% 29.69 in 10.0 mi South 8.1 mph - N/A   Clear
4:55 AM 60.8 °F 46.4 °F 59% 29.69 in 10.0 mi South 8.1 mph - N/A   Clear
5:15 AM 60.8 °F 46.4 °F 59% 29.70 in 10.0 mi South 6.9 mph - N/A   Clear
5:55 AM 60.8 °F 48.2 °F 63% 29.70 in 10.0 mi South 5.8 mph - N/A   Clear
6:15 AM 60.8 °F 48.2 °F 63% 29.70 in 10.0 mi South 5.8 mph - N/A   Clear
6:35 AM 59.0 °F 50.0 °F 72% 29.71 in 10.0 mi South 5.8 mph - N/A   Clear
6:55 AM 57.2 °F 50.0 °F 77% 29.71 in 10.0 mi South 6.9 mph - N/A   Clear
7:15 AM 60.8 °F 50.0 °F 68% 29.72 in 10.0 mi South 5.8 mph - N/A   Clear
7:35 AM 60.8 °F 51.8 °F 72% 29.72 in 10.0 mi South 8.1 mph - N/A   Clear
7:55 AM 62.6 °F 51.8 °F 68% 29.73 in 10.0 mi South 8.1 mph - N/A   Clear
8:15 AM 62.6 °F 53.6 °F 72% 29.73 in 10.0 mi South 9.2 mph - N/A   Clear
8:35 AM 64.4 °F 53.6 °F 68% 29.72 in 10.0 mi South 8.1 mph - N/A   Clear
8:55 AM 64.4 °F 53.6 °F 68% 29.73 in 10.0 mi South 6.9 mph - N/A   Mostly Cloudy
9:15 AM 64.4 °F 55.4 °F 73% 29.73 in 10.0 mi South 8.1 mph - N/A   Overcast
9:35 AM 66.2 °F 57.2 °F 73% 29.74 in 10.0 mi South 8.1 mph - N/A   Overcast
9:55 AM 68.0 °F 57.2 °F 68% 29.74 in 10.0 mi South 9.2 mph - N/A   Overcast
10:15 AM 69.8 °F 59.0 °F 68% 29.74 in 10.0 mi South 10.4 mph - N/A   Overcast
10:35 AM 69.8 °F 60.8 °F 73% 29.74 in 10.0 mi South 13.8 mph 19.6 mph N/A   Overcast
10:55 AM 71.6 °F 60.8 °F 69% 29.74 in 10.0 mi South 12.7 mph 19.6 mph N/A   Overcast
11:15 AM 69.8 °F 60.8 °F 73% 29.74 in 10.0 mi South 10.4 mph 20.7 mph N/A   Overcast
11:35 AM 69.8 °F 60.8 °F 73% 29.74 in 10.0 mi South 9.2 mph 17.3 mph N/A   Overcast
11:55 AM 71.6 °F 60.8 °F 69% 29.74 in 10.0 mi South 11.5 mph 19.6 mph N/A   Overcast
12:15 PM 71.6 °F 60.8 °F 69% 29.73 in 10.0 mi South 9.2 mph 17.3 mph N/A   Overcast
12:35 PM 71.6 °F 60.8 °F 69% 29.72 in 10.0 mi South 12.7 mph 18.4 mph N/A   Overcast
12:55 PM 73.4 °F 60.8 °F 65% 29.71 in 10.0 mi South 11.5 mph 17.3 mph N/A   Overcast
1:15 PM 73.4 °F 62.6 °F 69% 29.69 in 10.0 mi South 12.7 mph 16.1 mph N/A   Overcast
1:35 PM 73.4 °F 60.8 °F 65% 29.69 in 10.0 mi South 11.5 mph 18.4 mph N/A   Overcast
1:55 PM 73.4 °F 62.6 °F 69% 29.68 in 10.0 mi South 13.8 mph 18.4 mph N/A   Overcast
2:15 PM 73.4 °F 62.6 °F 69% 29.68 in 10.0 mi South 12.7 mph 20.7 mph N/A   Overcast
2:35 PM 75.2 °F 62.6 °F 65% 29.67 in 10.0 mi South 12.7 mph 21.9 mph N/A   Mostly Cloudy
2:55 PM 75.2 °F 62.6 °F 65% 29.66 in 10.0 mi South 13.8 mph 20.7 mph N/A   Mostly Cloudy
3:15 PM 75.2 °F 62.6 °F 65% 29.65 in 10.0 mi South 16.1 mph 23.0 mph N/A   Mostly Cloudy
3:35 PM 75.2 °F 62.6 °F 65% 29.65 in 10.0 mi South 12.7 mph 19.6 mph N/A   Overcast
3:55 PM 73.4 °F 62.6 °F 69% 29.64 in 10.0 mi SSE 13.8 mph 17.3 mph N/A   Overcast
5:15 PM 71.6 °F 62.6 °F 73% 29.63 in 10.0 mi SSE 11.5 mph 17.3 mph N/A   Overcast
5:35 PM 73.4 °F 62.6 °F 69% 29.63 in 10.0 mi South 9.2 mph 16.1 mph N/A   Overcast
5:55 PM 71.6 °F 62.6 °F 73% 29.63 in 10.0 mi South 6.9 mph - N/A   Overcast
6:15 PM 71.6 °F 62.6 °F 73% 29.63 in 10.0 mi South 6.9 mph - N/A   Overcast
6:35 PM 71.6 °F 62.6 °F 73% 29.64 in 10.0 mi SSE 8.1 mph - N/A   Overcast
6:55 PM 71.6 °F 62.6 °F 73% 29.63 in 10.0 mi South 10.4 mph - N/A   Overcast
7:15 PM 71.6 °F 62.6 °F 73% 29.62 in 10.0 mi SSE 9.2 mph - N/A   Mostly Cloudy
7:35 PM 71.6 °F 62.6 °F 73% 29.62 in 10.0 mi SSE 10.4 mph - N/A   Overcast
8:15 PM 69.8 °F 62.6 °F 78% 29.62 in 10.0 mi SSE 11.5 mph - N/A   Scattered Clouds
8:35 PM 69.8 °F 62.6 °F 78% 29.63 in 10.0 mi SE 9.2 mph - N/A   Clear
8:55 PM 68.0 °F 62.6 °F 83% 29.63 in 10.0 mi SE 9.2 mph - N/A   Clear
9:15 PM 68.0 °F 62.6 °F 83% 29.63 in 10.0 mi SE 10.4 mph - N/A   Clear
9:55 PM 66.2 °F 62.6 °F 88% 29.64 in 10.0 mi SE 9.2 mph - N/A   Clear
10:15 PM 66.2 °F 62.6 °F 88% 29.64 in 10.0 mi SE 8.1 mph - N/A   Clear
10:35 PM 66.2 °F 62.6 °F 88% 29.63 in 10.0 mi SE 9.2 mph - N/A   Clear
10:55 PM 66.2 °F 62.6 °F 88% 29.62 in 9.0 mi SE 8.1 mph - N/A   Clear
11:15 PM 66.2 °F 62.6 °F 88% 29.61 in 9.0 mi SE 8.1 mph - N/A   Clear
11:35 PM 66.2 °F 62.6 °F 88% 29.60 in 8.0 mi SE 9.2 mph - N/A   Clear
11:55 PM 66.2 °F 62.6 °F 88% 29.60 in 8.0 mi SE 8.1 mph - N/A   Clear